Powrót do katalogu

STARLINK-36722

AktywnyŁącznośćVLEO
NORAD 67917·PAYLOAD·🇺🇸 United States

Wystrzelony Feb 22, 2026 z Vandenberg Space Force Base

Loading…

Następne Przeloty (najbliższe 24 godziny)

TLE

ŚwieżeSource: CelesTrak SupGP

Epoka: Sep 14, 2026, 21:25 UTC

1 67917C 26036P   26257.89284722  .00035874  00000+0  13001-2 0  2571
2 67917  43.0004 256.4196 0001166 251.0071  43.4766 15.27542888    17

Śledź STARLINK-36722 w czasie rzeczywistym z AllMySat

Download on the App Store